Location: Arcones
(41.1182°N, 3.7238°W)
Time: 16:57:57
(UTC+00:00)

Cosmos 2058 Rocket - Pass Details

Date: 15 March 2026
Orbit: 604 x 632 km, 82.5° (Epoch: 18 April)

Event Time Altitude Azimuth Distance (km) Brightness Sun altitude
Rises 18:42:06 0° 334° (NNW) 2,932 6.9 -4.7°
Reaches altitude 10° 18:44:59 10° 315° (NW) 2,016 6.5 -5.3°
Maximum altitude 18:47:53 17° 274° (W) 1,582 6.7 -5.8°
Drops below altitude 10° 18:50:46 10° 233° (SW) 1,997 6.5 -6.3°
Sets 18:53:37 0° 214° (SW) 2,893 6.9 -6.9°
